Regional Weather Roundup
Issued by NWS

Home | Current Version | Previous Version | Text Only | Print | Product List | Glossary On
Versions: 1 2 3 4 5 6 7 8 9 10 11 12 13 14 15 16 17 18 19 20 21 22 23 24 25 26 27 28 29 30 31 32 33 34 35 36 37 38 39 40 41 42 43 44 45 46 47 48 49 50
000
ASUS44 KFWD 230515
RWRTX
NORTH TEXAS HOURLY WEATHER ROUNDUP
NATIONAL WEATHER SERVICE FORT WORTH TX
1200 AM CDT SAT MAY 23 2015

NOTE: "FAIR" INDICATES FEW OR NO CLOUDS BELOW 12,000 FEET WITH NO
SIGNIFICANT WEATHER AND/OR OBSTRUCTIONS TO VISIBILITY.

TXZ118-119-230600-
DALLAS/FORT WORTH METROPLEX

CITY           SKY/WX    TMP DP  RH WIND       PRES   REMARKS
DFW AIRPORT    MOCLDY    66  66 100 E5        30.09F
DALLAS LOVE    CLOUDY    71  66  84 E7        30.10S
FTW MEACHAM    CLOUDY    68  66  93 E7        30.08F FOG
DAL-EXECUTIVE  MOCLDY    71  67  87 SE10      30.09F
FTW-ALLIANCE   CLOUDY    65  65 100 E3        30.09F FOG
FTW-NAS-JRB    CLOUDY    69  68  96 E3        30.09F FOG
FTW-SPINKS     CLOUDY    71  68  90 CALM      30.10F FOG
ARLINGTON      CLOUDY    72  66  81 SE10      30.09F
GRAND PRAIRIE  MOCLDY    71  69  93 SE7       30.11F
ADDISON        CLOUDY    70  66  88 E8        30.12F
MESQUITE       CLOUDY    71  67  88 SE8       30.11S
LANCASTER      CLOUDY    71  65  83 SE6       30.11F
$$

TXZ091>094-102>105-117-120-121-131>134-230600-
NORTH CENTRAL TEXAS

CITY           SKY/WX    TMP DP  RH WIND       PRES   REMARKS
SHRMAN/DENISON CLOUDY    62  62 100 E6        30.13F FOG
GAINESVILLE    CLOUDY    61  60  96 E5        30.14F
BOWIE          CLOUDY    60  60 100 CALM      30.11F FOG
BRIDGEPORT     CLOUDY    62  62 100 CALM      30.12F FOG
DECATUR        CLOUDY    63  63 100 E7        30.11F FOG
DENTON         LGT RAIN  65  63  93 NE6       30.10F
MCKINNEY       CLOUDY    67  63  87 SE5       30.12S
GREENVILLE     CLOUDY    68  61  77 SE7       30.14R
ROCKWALL       CLOUDY    69  65  88 E8        30.11S
TERRELL        MOCLDY    71  66  84 E9        30.11F
WAXAHACHIE     CLOUDY    70  69  96 E7        30.11F
CLEBURNE       CLOUDY    72  72 100 E9        30.10F
GRANBURY         N/A     69  67  93 CALM      30.10S
$$

TXZ083>090-098>101-113>116-127>130-139>142-154-155-230600-
WESTERN NORTH TEXAS

CITY           SKY/WX    TMP DP  RH WIND       PRES   REMARKS
WICHITA FALLS  CLOUDY    60  59  96 E12       30.10S
WF-KICKAPOO    CLOUDY    62  60  94 E7        30.10F
VERNON         CLOUDY    60  56  88 E9        30.11S
ABILENE        CLOUDY    70  67  90 SE16      30.05F
ABILENE-DYESS  CLOUDY    70  64  79 S13       30.04S
BRECKENRIDGE   CLOUDY    69  69  98 SE10      30.06F FOG
GRAHAM         CLOUDY    65  65 100 E6        30.07F FOG
MINERAL WELLS  CLOUDY    66  65  96 E6        30.08S FOG
STEPHENVILLE   CLOUDY    69  67  92 SE8       30.12S
COMANCHE       CLOUDY    70  70 100 SE8       30.09S
BROWNWOOD      CLOUDY    72  68  88 SE7       30.08S FOG
COLEMAN        CLOUDY    71  70  97 SE12G17   30.07S
BRADY          CLOUDY    72  72 100 SE12      30.06R
$$

TXZ143>147-156>162-174-175-230600-
CENTRAL TEXAS

CITY           SKY/WX    TMP DP  RH WIND       PRES   REMARKS
WACO           CLOUDY    72  68  87 SE14      30.09S
WACO-MCGREGOR  PTCLDY    72  64  78 SE10      30.10S
HILLSBORO      MOCLDY    71  66  82 E8        30.10S
CORSICANA      PTCLDY    72  68  87 SE9       30.12S
MEXIA          CLOUDY    70  67  92 SE10G17   30.10F
HEARNE         PTCLDY    71  68  91 E3        30.10F
CAMERON        MOCLDY    72  69  90 SE7       30.09S
TEMPLE         CLOUDY    72  64  78 SE12      30.08S
KILLEEN        CLOUDY    71  70  95 SE14      30.08S
KILLEEN-SKYLRK MOCLDY    72  66  83 SE13      30.08F
FORT HOOD      CLOUDY    72  70  94 SE12      30.07F
GATESVILLE     MOCLDY    72  70  94 SE6       30.10S
HAMILTON       CLOUDY    71  71 100 SE15      30.08F
LAMPASAS       CLOUDY    71  70  95 SE10      30.07F
$$

TXZ095>097-106>112-122>126-135>138-148>153-164>167-230600-
EAST TEXAS

CITY           SKY/WX    TMP DP  RH WIND       PRES   REMARKS
PARIS          PTCLDY    63  57  82 E7        30.15S
SULPHUR SPRNGS CLOUDY    67  63  86 E6        30.16S
MOUNT PLEASANT CLOUDY    68  61  78 E5        30.17S
GILMER         CLOUDY    69  64  85 E3        30.15S
MINEOLA        CLEAR     70  66  88 SE6       30.15R
TYLER          CLEAR     70  64  81 SE10      30.13S
LONGVIEW       MOCLDY    70  65  84 SE7       30.15S
MARSHALL       CLOUDY    72  66  81 E5        30.18S
ATHENS         MOCLDY    68  64  88 SE5       30.11S
PALESTINE      PTCLDY    70  67  91 E7        30.14F
JACKSONVILLE   CLOUDY    70  66  89 E5        30.16S
HENDERSON      CLOUDY    69  65  85 SE6       30.17R
NACOGDOCHES    PTCLDY    70  64  83 E6        30.14S
LUFKIN         PTCLDY    72  67  84 E6        30.13S
$$

SUPPLEMENTAL OBSERVATIONS (CENTRAL)

CITY           SKY/WX    TMP DP  RH WIND       PRES   REMARKS
LAKE TEXOMA      N/A     61  57  88 E5          N/A
CADDO GRASSLND   N/A     63  59  88 NE2         N/A
PAT MAYSE LAKE   N/A    N/A N/A N/A NE5         N/A
GREENVILLE       N/A     68  61  77 SE6         N/A
CEDAR HILL       N/A     72  66  83 SE6         N/A
ATHENS           N/A     72  66  83 SE8         N/A
MCGREGOR         N/A     72  66  83 SE9         N/A
TEMPLE           N/A     72  68  88 SE7         N/A
$$

SUPPLEMENTAL OBSERVATIONS (WEST)

CITY           SKY/WX    TMP DP  RH WIND       PRES   REMARKS
MILLERS CREEK    N/A    N/A N/A N/A E8          N/A
POSSUM KINGDOM   N/A     64  63  94 E8          N/A
LBJ GRASSLAND    N/A    N/A N/A N/A E6          N/A
GRANBURY         N/A     68  66  94 E2          N/A
HAMBY            N/A     70  66  88 SE9G17      N/A
IVIE RESERVOIR   N/A     72  68  88 SE9         N/A
COLORADO BEND    N/A     72  70  94 S8G16       N/A
$$

SUPPLEMENTAL OBSERVATIONS (EAST)

CITY           SKY/WX    TMP DP  RH WIND       PRES   REMARKS
TEXARKANA        N/A     64  55  72 SE2         N/A
LINDEN           N/A     66  59  77 E2          N/A
CADDO LAKE       N/A     66  61  82 SE2         N/A
LUFKIN           N/A     70  66  88 MISG        N/A
N SABINE NF      N/A     66  64  94 MISG        N/A
$$

SUPPLEMENTAL OBSERVATIONS ARE A COLLECTION OF AUTOMATED INSTRUMENTS
THAT ARE MAINTAINED BY A VARIETY OF FEDERAL AND STATE AGENCIES.
CERTAIN ELEMENTS...SUCH AS HUMIDITY VALUES AND SUSTAINED WIND
SPEEDS...MAY BE APPROXIMATED.



USA.gov is the U.S. government's official web portal to all federal, state and local government web resources and services.